Ellsworth AFB, SD

11:53 PM MDT on May 26, 2018 (GMT -0600)
Ellsworth Air Force Base

Weather History for KRCA - April, 2014

Change the Weather History Date:

Wednesday, April 23, 2014

  Actual Average Record
Temperature  
Mean Temperature 54 °F -  
Max Temperature 64 °F 58 °F 85 °F (2009)
Min Temperature 43 °F 35 °F 12 °F (2013)
Degree Days  
Heating Degree Days 12    
Growing Degree Days 4 (Base 50)    
Moisture  
Dew Point 39 °F    
Average Humidity 54    
Maximum Humidity 64    
Minimum Humidity 40    
Precipitation  
Precipitation 0.00 in - - ()
Sea Level Pressure  
Sea Level Pressure 29.55 in    
Wind  
Wind Speed 14 mph (NNW)    
Max Wind Speed 36 mph    
Max Gust Speed 44 mph    
Visibility 10 miles    
Events      
Averages and records for this station are not official NWS values.
T = Trace of Precipitation, MM = Missing Value Source: NWS Daily Summary

Daily Weather History Graph

Daily Weather History Graph

Search for Another Location

Airport or City:

Astronomy

Apr. 23, 2014 Rise Set
Actual Time 5:55 AM MDT 7:46 PM MDT
Civil Twilight 5:24 AM MDT 8:17 PM MDT
Nautical Twilight 4:47 AM MDT 8:55 PM MDT
Astronomical Twilight 4:06 AM MDT 9:36 PM MDT
Moon 2:42 AM MDT (4/23) 1:45 PM MDT (4/23)
Length of Visible Light 14h 52m
Length of Day
13h 50m
Waning Crescent, 34% of the Moon is Illuminated
Apr 23
Waning Crescent
Apr 29
New
May 6
First Quarter
May 14
Full
May 21
Last Quarter

Hourly Weather History & Observations

Time (MDT) Temp. Windchill Dew Point Humidity Pressure Visibility Wind Dir Wind Speed Gust Speed Precip Events Conditions
12:58 AM 58.3 °F - 46.0 °F 64% 29.48 in 10.0 mi South 11.5 mph - N/A   Partly Cloudy
1:58 AM 59.4 °F - 44.4 °F 58% 29.44 in 10.0 mi South 19.6 mph - N/A   Overcast
2:58 AM 57.2 °F - 42.8 °F 59% 29.41 in 10.0 mi South 17.3 mph - N/A   Overcast
3:58 AM 56.5 °F - 41.7 °F 58% 29.39 in 10.0 mi South 11.5 mph - N/A   Overcast
4:58 AM 55.2 °F - 41.9 °F 61% 29.39 in 10.0 mi South 9.2 mph - N/A   Clear
5:58 AM 55.9 °F - 42.8 °F 61% 29.38 in 10.0 mi SSW 5.8 mph - N/A   Overcast
6:58 AM 59.0 °F - 41.2 °F 52% 29.38 in 10.0 mi West 2.3 mph - N/A   Mostly Cloudy
7:58 AM 58.5 °F - 43.2 °F 57% 29.40 in 10.0 mi WSW 6.9 mph - N/A   Overcast
8:58 AM 63.1 °F - 42.1 °F 46% 29.40 in 10.0 mi NNW 4.6 mph - N/A   Overcast
9:58 AM 64.2 °F - 39.6 °F 40% 29.45 in 10.0 mi North 13.8 mph - N/A   Overcast
10:05 AM 62.6 °F - 41.0 °F 45% 29.50 in 10.0 mi NE 11.5 mph - N/A   Overcast
10:58 AM 58.6 °F - 46.2 °F 63% 29.50 in 10.0 mi East 2.3 mph - N/A   Overcast
11:58 AM 58.8 °F - 44.8 °F 60% 29.52 in 10.0 mi NNW 19.6 mph 26.5 mph N/A   Overcast
12:58 PM 60.8 °F - 42.8 °F 52% 29.53 in 10.0 mi NNW 20.7 mph 27.6 mph N/A   Scattered Clouds
1:58 PM 58.6 °F - 41.5 °F 53% 29.56 in 10.0 mi NNW 35.7 mph 43.7 mph N/A   Clear
2:58 PM 53.2 °F - 39.2 °F 59% 29.61 in 10.0 mi NNW 31.1 mph 42.6 mph N/A   Mostly Cloudy
3:58 PM 56.7 °F - 38.1 °F 50% 29.61 in 10.0 mi North 27.6 mph 36.8 mph N/A   Clear
4:58 PM 57.2 °F - 36.9 °F 47% 29.63 in 10.0 mi NNW 26.5 mph 34.5 mph N/A   Clear
5:58 PM 56.7 °F - 35.6 °F 45% 29.65 in 10.0 mi North 21.9 mph 28.8 mph N/A   Clear
6:58 PM 55.8 °F - 34.2 °F 44% 29.70 in 10.0 mi NNW 20.7 mph 24.2 mph N/A   Clear
7:58 PM 51.3 °F - 33.8 °F 51% 29.73 in 10.0 mi NNE 9.2 mph - N/A   Clear
8:58 PM 47.5 °F - 33.6 °F 59% 29.77 in 10.0 mi North 10.4 mph - N/A   Clear
9:58 PM 45.7 °F 42.7 °F 30.0 °F 54% 29.77 in 10.0 mi North 5.8 mph - N/A   Clear
10:58 PM 43.2 °F - 30.4 °F 61% 29.81 in 10.0 mi Calm Calm - N/A   Clear
11:58 PM 43.9 °F - 30.4 °F 59% 29.83 in 10.0 mi North - - N/A   Clear